Regional Weather Roundup
Issued by NWS Grand Forks, ND

Home | Current Version | Previous Version | Graphics & Text | Print | Product List | Glossary On
Versions: 1 2 3 4 5 6 7 8 9 10 11 12 13 14 15 16 17 18 19 20 21 22 23 24 25 26 27 28 29 30 31 32 33 34 35 36 37 38 39 40 41 42 43 44 45 46 47 48 49 50
000
ASUS43 KFGF 052010
RWRFGF
PRAIRIE TO PINES  WEATHER ROUNDUP
NATIONAL WEATHER SERVICE EASTERN NORTH DAKOTA/GRAND FORKS ND
200 PM CST THU MAR 05 2015

 **SATELLITE DATA USED TO AUGMENT SKY COVER AT AUTOMATED STATIONS**
 *****  WEATHER ACROSS EASTERN NORTH DAKOTA  *****

CITY           SKY/WX    TMP DP  RH WIND       PRES   REMARKS
GRAND FORKS    SUNNY     20   9  62 S21       30.20F WCI   4
GRAND FRKS AFB SUNNY     25   6  44 S20G26    30.17F WCI  11
GRAND FRKS NWS   N/A     19 N/A N/A S30         N/A  WCI   0
DEVILS LAKE    SUNNY     21   9  58 S10       30.09F WCI  10
FARGO          SUNNY     21   4  47 S23       30.26F WCI   5
WAHPETON ARPT  CLEAR     18   3  53 S17       30.30F WCI   2
$$

 ***** WEATHER ACROSS CENTRAL AND WESTERN NORTH DAKOTA  *****

CITY           SKY/WX    TMP DP  RH WIND       PRES   REMARKS
BISMARCK       SUNNY     36   6  28 SW16      30.07F
MINOT          SUNNY     23   9  55 SW14      30.03F WCI  11
JAMESTOWN      SUNNY     26  10  50 SW17G25   30.13F WCI  13
MINOT AFB      SUNNY     23  12  62 W13       30.03F WCI  11
GARRISON         N/A     28  13  53 W10       30.05F WCI  19
WILLISTON      SUNNY     33  11  39 W8        30.05F
DICKINSON      SUNNY     40  10  29 NW15G28   30.00F
HETTINGER      SUNNY     43  10  26 NW20G30   30.03F
$$

 *****  OTHER AIRPORT OBSERVATIONS IN OUR AREA  *****

CITY           SKY/WX    TMP DP  RH WIND       PRES   REMARKS
WALHALLA         N/A     19   7  58 SW13G20   30.10F WCI   7
GRAFTON AIRPOR NOT AVBL
VALLEY CITY AR FLURRIES  19  10  68 S18       30.17F WCI   4
CANDO          FAIR      23   9  54 S13       30.06F WCI  11
CAVALIER APRT  FAIR      21   7  53 S17       30.12F WCI   7
GWINNER        CLEAR     23   9  54 S23       30.24F WCI   7
SHEYENNE NWR     N/A     22   3  44 S16       29.95  WCI   8
ROLLA          FAIR      10   1  67 SW16      30.02F WCI  -7
 ***** THE ABOVE OBSERVATIONS ARE NON NWS ARE NOT QUALITY
       CONTROLLED AND MAY MIS-REPORT RAIN FOR SNOW...
$$

  *****  WEATHER ACROSS NORTHERN MINNESOTA  *****

CITY           SKY/WX    TMP DP  RH WIND       PRES   REMARKS
FLAG ISLAND    SUNNY      7  -2  66 S16       30.16F WCI -11
WARROAD        SUNNY     14   0  52 SW10G20   30.18F WCI   1
ROSEAU         SUNNY     14   1  57 S14       30.18F WCI  -1
HALLOCK        NOT AVBL
THF RVR FALLS  SUNNY     16   9  73 S20       30.21F WCI  -1
BAUDETTE       SUNNY     15  -3  44 SW14      30.18F WCI   0
WASKISH        SUNNY     16  -2  45 SW10      30.22F WCI   3
CROOKSTON      SUNNY     19   9  63 S23       30.23F WCI   2
$$
  *****  WEATHER ACROSS CENTRAL AND WEST MINNESOTA  *****

CITY           SKY/WX    TMP DP  RH WIND       PRES   REMARKS
FOSSTON        SUNNY     14   1  57 S21G26    30.23F WCI  -4
BEMIDJI        SUNNY     15  -4  43 SW10G16   30.24F WCI   2
PARK RAPIDS    SUNNY     12  -3  51 S14       30.27F WCI  -3
ELBOW LAKE     FAIR      12   2  64 S15       30.32F WCI  -4
WADENA         SUNNY     10  -2  56 S9        30.30F WCI  -2
DETROIT LAKES  SUNNY     16   0  48 S15       30.27F WCI   1
MOORHEAD       SUNNY     18   1  49 S20G25    30.28F WCI   1
FERGUS FALLS   SUNNY     12   0  57 S17       30.35F WCI  -5
MORRIS MN      SUNNY     16   3  57 S15       30.34F WCI   1
STAPLES        SUNNY      9  -4  56 S9        30.33F WCI  -5
$$
  *****  WEATHER ELSEWHERE ACROSS MINNESOTA  *****

CITY           SKY/WX    TMP DP  RH WIND       PRES   REMARKS
DULUTH         SUNNY     11  -9  40 W15G23    30.29F WCI  -5
INTRNTL FALLS  SUNNY     13 -10  35 W17G25    30.22F WCI  -4
ELY            SUNNY     10 -11  37 SW12      30.24F WCI  -4
CLOQUET        SUNNY     10 -13  34 SW13G18   30.31F WCI  -5
WHEATON        SUNNY     16   3  57 S13       30.34F WCI   2
BRAINERD       SUNNY     10  -5  50 SW10      30.34F WCI  -4
HIBBING        SUNNY     13  -9  37 SW9       30.27F WCI   1
ALEXANDRIA     SUNNY     11  -1  58 S12       30.33F WCI  -3
SAINT CLOUD    SUNNY     11  -1  58 S8        30.40F WCI  -1
MINNEAPOLIS    FAIR      12  -4  48 SW8       30.45F WCI   0
$$

  *****  WEATHER ACROSS SOUTH DAKOTA  *****

CITY           SKY/WX    TMP DP  RH WIND       PRES   REMARKS
SIOUX FALLS    SUNNY     23   5  46 SW10G21   30.34F WCI  12
BROOKINGS      NOT AVBL
WATERTOWN      SUNNY     17   6  62 S14       30.26F WCI   3
HURON          SUNNY     28   9  44 S17G24    30.26F WCI  16
SISSETON         N/A     19   7  59 S14       30.28  WCI   6
ABERDEEN       SUNNY     20   9  62 S15       30.25F WCI   6
MITCHELL       SUNNY     30   7  37 SW15      30.29F WCI  19
PIERRE         MOSUNNY   27  12  53 S13       30.18F WCI  16
MOBRIDGE       SUNNY     34   6  31 S15       30.09F WCI  24
RAPID CITY     CLOUDY    42  14  32 CALM      30.09F
$$

  *****  SOME WEATHER IN NEARBY STATES *****

CITY           SKY/WX    TMP DP  RH WIND       PRES   REMARKS
GLASGOW MT     SUNNY     45  12  26 VRB7      30.05F
GREAT FALLS MT MOSUNNY   51   8  17 W22G32    30.09F
CHEYENNE WY    PTSUNNY   38  14  37 W17       30.17F
SCOTTSBLUFF NE PTSUNNY   46  14  27 NW15      30.20F
OMAHA NE       SUNNY     25   2  37 S10       30.47F WCI  15
DES MOINES IA  SUNNY     18  -3  39 VRB5      30.51F WCI  11
DAVENPORT IA   SUNNY     10  -2  58 W12       30.54F WCI  -5
CHICAGO IL     SUNNY     15  -3  44 W12       30.47S WCI   2
EAU CLAIRE WI  SUNNY      7  -8  50 W9        30.45F WCI  -7
LA CROSSE WI   SUNNY     14  -3  47 NW8       30.49F WCI   3
$$

  *****  SOME NATIONAL WEATHER *****

CITY           SKY/WX    TMP DP  RH WIND       PRES   REMARKS
LA GUARDIA NY  LGT SNOW  25  16  68 NW6       30.18R WCI  18
RALEIGH NC     LGT RAIN  38  34  85 NE20G29   30.05R FOG
ATLANTA GA     CLOUDY    43  39  86 NW22G35   30.09R
NEW ORLEANS LA CLOUDY    39  32  76 N26G37    30.27R
OKLAHOMA CITY  SUNNY     39  13  34 W7        30.52F
ALBUQUERQUE NM SUNNY     43  14  31 E5        30.37F
SALT LAKE CITY MOSUNNY   44  21  40 S7        30.43F
LOS ANGELES CA MOSUNNY   71  25  17 W10       30.25F
BOISE ID       SUNNY     50  16  25 CALM      30.39F
SEATTLE WA     PTSUNNY   52  33  48 W5        30.38F
$$

*** WEATHER ACROSS MANITOBA...SASKATCHEWAN AND ONTARIO ***
                ***ONTARIO***

CITY           SKY/WX    TMP DP  RH WIND       PRES   REMARKS
GERALDTON      SUNNY      7 -11  43 SW20      30.13F WCI -13
THUNDER BAY    SUNNY     14 -11  31 SW14      30.26F WCI  -1
SIOUX LOOKOUT  MOSUNNY    9  -9  43 SW10G17   30.12F WCI  -6
TORONTO        PTSUNNY   14  -4  44 N10       30.32S WCI   1
BIG TROUT LK   SUNNY      7  -9  47 W12G20    29.92F WCI  -9
PICKLE LAKE    MOSUNNY   10 -11  37 W13G25    30.00F WCI  -5
DRYDEN         SUNNY      9  -9  43 SW17G26   30.12F WCI -10
KENORA         MOSUNNY    5  -9  51 S16       30.13F WCI -14
$$
                *** MANITOBA***

CITY           SKY/WX    TMP DP  RH WIND       PRES   REMARKS
BRANDON        MOSUNNY   12   1  62 SW9       30.00F WCI   0
DAUPHIN        MOSUNNY   23   7  50 W13       29.89F WCI  11
ISLAND LAKE    NOT AVBL
PILOT MOUND      N/A     12   5  73 S17         N/A  WCI  -5
THE PAS        CLOUDY    14   0  52 W13       29.75F WCI   0
THOMPSON       PTSUNNY   10  -8  44 SW13      29.68F WCI  -5
WINNIPEG       MOSUNNY    9   0  66 S23       30.11F WCI -12
LYNN LAKE      PTSUNNY   12   1  62 W13G21    29.61S WCI  -3
CHURCHILL      CRYSTALS  -4 -13  65 S10       29.66F WCI -21
GILLAM         PTSUNNY    9  -9  43 SW16      29.72F WCI  -9
$$
                ***SASKATCHEWAN***

CITY           SKY/WX    TMP DP  RH WIND       PRES   REMARKS
ESTEVAN        MOSUNNY   23  10  58 SW13      29.99F WCI  11
KINDERSLEY     MOSUNNY   34  23  64 W14       29.97S WCI  24
LLOYDMINSTER   PTSUNNY   30  18  59 W14       29.93S WCI  20
PRINCE ALBERT  MOSUNNY   25   9  50 W21       29.85S WCI  10
REGINA         MOSUNNY   18  12  79 S5        29.95F WCI  11
YORKTON        MOSUNNY   18   5  57 SW15      29.85F WCI   3
N. BATTLEFORD  SUNNY     25  14  63 NW12      29.95S WCI  14
LA RONGE       MOSUNNY   23  10  58 W16G23    29.80S WCI  10
SASKATOON      MOSUNNY   27  14  59 W15       29.93S WCI  15
SWIFT CURRENT  PTSUNNY   37  21  52 W21G28    29.95F
$$
NOTE: THESE ARE AUTOMATED STATIONS WITH LIMITED QUALITY CONTROL
      "FAIR" INDICATES FEW OR NO CLOUDS BELOW 12,000 FEET WITH NO
      SIGNIFICANT WEATHER AND/OR OBSTRUCTIONS TO VISIBILITY.
      SKY/WX - SKY CONDITION AND SIGNIFICANT WEATHER.
      TMP - AIR TEMPERATURE.    DP   - DEWPOINT TEMPERATURE.
      RH  - RELATIVE HUMIDITY.  PRES - PRESSURE.
      HX  - HEAT INDEX.         WCI  - WIND CHILL INDEX.
$


USA.gov is the U.S. government's official web portal to all federal, state and local government web resources and services.